SCP
0 0 0 0 0 0 0 0 0 0 0 1 2 2 1 1 2 2 2 2 2 2 3 4 4 3 3 4 5 5 4 4 4 4 4 4 4 4 4 5 6 7 6 5
0 0 0 0 0 0 0 0 0 0 0 1 2 2 2 2 2 3 3 2 2 2 4 4 4 4 3 4 5 5 4 4 4 4 4 4 4 4 4 5 6 7 7 6
0 0 0 0 0 0 0 0 0 0 0 1 2 3 2 2 3 3 2 2 2 2 3 4 4 4 4 4 4 4 4 4 4 4 4 4 4 4 5 5 6 8 8 7
0 0 0 0 0 0 0 0 0 0 0 1 2 3 3 3 3 2 2 1 1 2 3 4 5 5 5 4 3 3 4 4 4 4 4 4 4 4 4 5 6 7 7 6
0 0 0 0 0 0 0 0 0 0 0 1 1 3 4 4 3 2 2 1 1 2 3 4 6 7 6 4 4 4 5 5 5 5 4 4 5 5 5 5 5 6 6 6
0 0 0 0 0 0 0 0 0 0 0 0 0 2 5 5 4 3 2 1 1 2 3 5 7 8 7 5 5 5 6 6 5 5 5 5 5 6 5 5 5 5 5 5
0 0 0 0 0 0 0 0 0 0 0 0 0 2 4 5 5 3 2 1 1 2 3 6 8 9 8 6 6 7 8 7 6 5 5 6 6 6 6 5 5 5 5 4
0 0 0 0 0 0 0 0 0 0 0 0 1 3 4 5 5 3 2 1 1 2 5 8 9 8 8 7 7 9 9 8 7 6 6 6 6 6 5 4 4 4 4 4
0 0 0 0 0 0 0 0 0 0 0 0 1 3 4 4 3 2 1 1 2 4 7 9 8 7 7 7 9 11 12 11 9 7 7 7 7 6 5 4 3 3 3 3
0 0 0 0 0 0 0 0 0 0 0 0 1 3 3 2 2 1 1 2 4 6 7 7 6 6 6 8 10 13 15 14 11 8 7 8 8 8 7 5 4 4 4 3
0 0 0 0 0 0 0 0 0 0 0 0 1 2 3 2 2 2 2 3 5 5 5 4 5 6 8 9 11 13 16 16 12 9 8 8 8 8 8 7 6 5 4 4
0 0 0 0 0 0 0 0 0 0 0 0 1 2 3 3 3 3 3 4 4 4 4 5 8 10 11 13 13 13 15 15 12 9 9 9 9 9 9 9 8 7 5 5
0 0 0 0 0 0 0 0 0 0 0 0 1 2 3 4 4 4 4 3 3 4 5 7 11 13 14 16 16 13 12 11 9 8 10 11 11 10 10 10 11 10 8 7
0 0 0 0 0 0 0 0 0 0 0 0 1 1 3 5 6 6 5 3 3 4 5 8 10 11 13 15 14 12 9 8 7 7 9 13 14 13 11 11 12 13 11 9
0 0 0 0 0 0 0 0 0 0 0 0 1 2 4 7 8 7 5 4 4 4 5 6 7 9 10 11 11 10 9 7 6 6 8 12 16 15 13 12 14 16 13 10
0 0 0 0 0 0 0 0 0 0 0 0 1 2 5 8 8 7 5 5 5 5 6 6 7 8 8 8 9 10 9 8 6 6 8 10 13 13 11 12 15 15 12 8
0 0 0 0 0 0 0 0 0 0 0 0 1 2 5 6 6 6 5 5 6 6 7 7 8 7 6 7 8 8 9 8 6 6 8 8 8 8 8 10 12 12 9 7
0 0 0 0 0 0 0 0 0 0 0 1 2 3 3 4 4 5 6 7 7 7 8 8 8 7 6 6 7 8 8 8 6 6 6 6 6 6 6 7 9 9 8 7
0 1 1 1 0 0 0 0 0 0 1 1 2 3 3 3 4 5 7 7 7 7 9 9 9 8 7 6 8 9 9 8 6 5 5 5 5 6 6 8 8 8 8 9
1 1 1 1 1 0 1 1 1 1 2 2 3 2 3 3 3 4 6 8 8 8 10 12 12 10 8 7 8 10 9 8 7 5 5 5 5 6 7 8 7 7 8 9
1 1 1 1 1 1 2 2 2 3 4 4 3 3 2 3 3 4 6 8 9 9 13 15 14 11 8 7 9 12 12 10 8 6 5 5 5 5 6 7 7 7 8 9
0 1 1 1 1 3 4 4 5 7 8 7 5 3 3 3 4 5 5 7 8 11 14 16 15 12 9 8 11 15 16 14 11 9 7 7 6 6 5 6 7 7 8 8
1 1 1 1 2 4 5 5 6 8 10 10 8 5 3 4 6 6 5 5 7 10 13 14 13 13 12 11 13 17 19 19 15 11 9 8 8 7 6 6 6 6 6 6
1 1 2 2 4 5 7 7 7 7 8 10 9 6 4 5 6 6 5 5 6 9 12 12 13 13 14 15 17 18 19 22 21 16 12 9 8 7 7 6 5 5 6 6
1 1 2 3 3 4 7 9 6 5 6 8 8 6 4 4 5 6 6 7 9 10 11 12 12 11 11 14 16 15 16 22 25 20 14 10 8 8 7 7 6 6 6 5
1 1 1 2 3 4 6 7 5 4 5 6 7 6 4 4 5 5 6 9 12 12 11 12 12 10 9 10 12 12 13 19 24 20 14 10 9 8 8 7 6 6 5 4
Wind_Speed
10 9 5 5 5 6 6 4 3 2 3 4 3 4 6 8 8 9 8 10 10 10 11 10 9 9 9 8 7 5 4 4 2 1 1 1 1 1 2 3 3 2 2 1
10 8 6 7 6 8 8 6 4 3 2 2 2 2 3 5 6 8 9 9 11 11 10 9 9 9 9 8 7 6 5 4 3 2 1 1 1 1 2 2 3 2 1 2
12 6 6 8 7 8 9 7 5 4 4 3 1 2 3 5 6 8 9 9 10 11 12 11 10 9 9 9 8 6 5 5 3 3 2 1 2 1 1 2 2 2 1 1
10 9 9 9 8 9 8 7 6 6 6 5 4 3 5 6 7 9 9 9 10 10 11 12 11 10 10 10 9 7 6 5 4 2 2 2 2 2 1 1 2 1 1 1
11 10 11 10 9 8 8 7 8 7 7 9 7 4 4 7 7 8 9 10 10 11 12 12 11 10 10 10 9 8 7 5 4 3 2 1 1 1 1 1 2 2 2 2
12 10 10 9 8 8 8 9 8 7 7 9 7 5 3 5 6 7 8 9 10 11 11 12 12 10 9 9 9 9 8 6 5 4 3 2 1 1 1 0 2 2 2 2
13 13 10 8 9 8 9 8 5 5 6 7 3 2 1 5 5 6 7 8 10 10 10 11 12 11 9 9 9 9 9 7 6 5 3 3 2 1 1 2 2 2 1 1
11 10 10 9 9 9 8 8 6 7 6 3 1 0 1 2 5 5 8 8 9 10 10 11 10 10 9 9 8 8 9 7 6 5 4 3 2 2 2 3 1 1 1 1
7 6 5 7 8 10 9 8 9 9 9 7 2 3 3 3 4 5 7 8 8 8 9 10 10 10 10 9 8 8 8 7 6 6 5 4 3 2 2 1 1 1 1 1
7 8 8 6 8 10 10 8 6 7 5 6 3 2 3 5 4 4 5 5 6 7 9 9 10 10 9 9 8 8 8 6 5 5 4 4 4 2 1 1 1 1 1 2
9 9 8 8 9 9 8 8 6 6 6 5 5 1 4 4 5 5 5 6 5 4 6 7 7 7 7 8 8 8 7 7 5 5 4 3 3 3 2 1 1 1 1 1
7 8 9 10 8 8 9 9 7 6 5 6 5 2 2 4 4 5 6 7 5 5 6 7 7 6 6 6 7 7 6 7 6 5 4 3 3 3 3 2 1 2 2 2
4 6 8 8 8 7 9 9 9 8 7 6 6 3 3 4 4 4 4 6 6 5 6 6 6 6 5 5 5 6 5 6 6 5 5 4 3 3 2 2 2 2 2 2
4 9 10 9 5 5 8 10 9 9 7 5 4 4 3 3 3 3 5 5 5 4 5 6 6 6 5 4 4 4 4 4 4 4 4 4 3 2 2 2 2 2 2 2
7 10 10 10 10 10 11 11 9 9 8 7 4 4 3 3 2 4 5 4 4 3 3 4 5 5 5 5 4 4 3 2 2 3 3 3 3 3 2 2 2 1 1 2
7 9 9 10 12 13 14 13 11 9 7 7 6 2 3 3 4 4 3 3 4 3 2 3 3 4 5 5 4 4 3 2 2 2 3 3 3 2 2 2 2 2 2 1
7 7 9 10 11 13 14 12 10 8 7 7 5 2 2 3 3 3 2 1 2 2 1 2 2 2 3 4 4 4 3 3 2 2 2 2 3 2 2 3 2 2 2 2
8 7 6 9 10 14 7 5 6 6 4 3 1 1 1 2 4 3 2 2 2 1 1 1 1 0 2 3 3 3 3 3 3 2 2 2 2 2 2 2 2 2 2 2
9 6 7 8 12 12 8 6 6 5 3 1 0 2 2 2 2 3 3 3 2 1 2 2 1 1 1 3 3 2 2 2 2 2 2 2 3 2 3 3 3 2 2 3
8 7 8 9 11 9 4 2 4 5 3 2 2 2 3 2 2 1 3 4 4 2 2 2 1 0 1 2 3 2 3 3 3 2 2 2 3 3 3 3 3 2 2 3
8 9 11 11 11 6 3 3 4 5 1 3 3 3 3 3 2 2 2 2 2 3 2 2 1 0 1 2 3 3 2 2 2 2 2 3 3 3 3 3 3 3 3 2
9 8 9 9 10 4 5 4 3 4 5 5 5 4 4 3 3 2 2 2 2 2 2 1 1 0 1 1 2 3 3 2 2 2 2 3 3 3 3 2 2 2 3 3
7 4 4 4 2 2 3 4 4 4 4 5 4 4 3 3 3 3 3 3 3 2 1 1 1 0 1 2 2 2 2 2 2 2 2 2 2 2 2 2 2 3 3 3
3 3 4 3 2 1 1 3 4 4 4 5 5 4 4 4 3 2 3 2 3 4 2 1 2 2 2 1 1 1 2 2 2 1 1 1 2 2 1 1 2 2 1 1
6 5 4 4 4 4 4 4 4 4 5 4 4 4 4 3 2 2 2 2 2 3 3 2 2 1 1 1 1 1 1 2 2 1 1 2 2 1 1 1 2 1 2 2
5 4 4 3 3 5 4 5 5 4 5 5 5 5 4 3 3 3 2 2 2 3 4 2 2 1 1 1 1 1 0 1 1 1 1 1 1 1 1 1 2 5 3 4
Wind_Direction
238 242 249 262 250 269 281 280 278 234 197 192 165 163 167 168 166 156 160 159 156 155 152 149 150 147 145 138 137 138 141 137 137 128 144 153 149 153 138 136 122 116 140 154
247 239 253 262 260 260 271 269 260 252 242 204 161 164 170 169 172 159 164 159 158 156 148 147 154 156 151 148 148 145 153 154 158 151 163 173 169 167 146 112 110 130 163 172
244 247 253 254 258 273 274 274 283 282 290 285 178 224 209 169 173 165 163 162 158 155 155 155 167 163 159 156 157 160 158 154 166 172 179 164 148 158 108 129 141 163 171 162
246 251 256 257 250 259 266 278 285 284 274 264 233 222 192 184 191 175 166 162 159 155 158 161 167 166 165 162 161 154 150 152 160 175 192 189 174 170 171 142 130 146 215 201
247 240 246 251 257 264 278 288 284 287 281 274 244 242 189 182 187 180 169 165 161 159 164 164 163 165 166 165 161 155 149 153 160 182 199 210 206 185 147 122 134 177 190 194
256 253 250 256 262 260 268 270 270 264 261 267 256 243 184 177 181 167 158 157 155 157 161 157 157 158 163 163 161 152 146 153 165 181 191 182 228 242 111 154 173 207 190 181
241 241 236 240 258 248 248 260 268 263 239 249 255 257 150 160 172 163 149 150 152 155 156 154 155 159 162 162 159 152 151 161 172 179 188 178 205 216 197 225 224 227 218 177
242 232 221 220 240 260 257 260 261 275 277 272 210 110 88 141 150 151 145 151 159 162 156 154 156 155 158 160 157 152 154 165 172 176 183 179 188 217 218 221 254 248 267 188
265 262 237 220 231 245 252 270 277 274 277 283 228 134 161 182 163 144 136 147 159 154 144 151 153 156 159 161 157 157 153 163 173 179 175 179 192 225 241 208 235 268 268 233
270 276 254 228 231 232 248 266 281 281 289 292 287 177 169 165 142 122 124 125 133 144 144 154 157 160 160 160 155 151 150 161 167 172 185 183 189 196 224 265 235 297 339 346
254 262 263 248 234 238 233 245 263 283 291 284 286 318 133 149 140 136 129 117 118 151 144 143 142 148 154 156 153 154 152 157 168 177 183 179 171 180 192 212 249 247 281 282
248 264 268 260 251 256 251 250 251 260 265 268 269 271 116 122 132 120 123 130 145 142 131 132 140 147 150 150 149 149 156 163 170 172 169 168 169 179 194 201 216 223 232 244
305 267 262 253 242 244 249 247 257 266 262 258 260 203 131 98 82 104 113 111 108 120 122 129 135 137 141 141 141 147 158 168 171 168 169 169 181 186 199 203 211 221 233 231
276 259 268 272 281 270 261 259 256 265 268 268 241 198 167 127 104 108 98 89 107 110 113 124 128 128 134 132 128 137 151 155 161 160 167 169 181 186 192 201 212 207 216 210
255 258 265 277 280 274 268 272 266 257 263 273 258 208 182 138 92 77 85 93 82 90 111 113 122 127 137 132 134 138 148 150 154 162 169 172 178 173 181 199 208 200 211 220
244 272 281 272 273 275 272 267 264 261 260 264 258 230 134 113 87 84 85 107 108 90 95 105 117 128 136 139 146 150 155 151 152 171 176 165 172 172 188 212 203 205 212 224
250 256 270 273 274 270 261 257 255 251 242 247 244 196 149 123 100 94 87 104 103 104 99 82 63 118 143 147 152 158 156 159 166 185 181 164 170 179 197 220 211 228 230 228
248 256 265 266 267 258 259 275 265 262 242 248 243 165 148 115 122 102 77 64 82 83 73 84 62 151 162 153 149 156 159 162 175 187 192 179 188 199 203 213 222 229 232 234
253 245 257 259 255 255 252 262 271 263 255 329 11 95 79 82 119 109 48 38 39 77 92 88 79 242 163 145 141 150 175 177 193 197 198 204 199 206 213 218 234 240 239 237
238 228 245 255 259 263 267 312 299 265 233 30 41 63 66 42 271 96 45 29 2 355 75 70 66 56 102 127 149 172 200 200 212 206 211 218 210 211 217 218 228 229 234 237
216 224 235 249 257 262 321 329 289 261 35 32 38 50 46 29 349 39 29 28 358 5 52 62 57 69 115 141 162 176 200 220 233 225 213 215 213 221 220 213 216 219 228 236
239 240 235 245 252 253 3 354 10 34 27 25 29 34 41 31 18 45 14 357 347 1 45 17 16 70 124 159 176 184 200 216 224 220 219 214 211 227 221 210 222 222 225 231
238 266 278 267 255 95 44 53 46 29 18 1 6 20 16 12 4 15 5 352 355 358 15 345 343 31 136 174 192 199 187 173 201 213 213 212 206 217 195 207 226 222 224 236
240 278 282 284 245 305 355 46 34 11 355 347 347 359 359 358 354 3 355 351 354 347 348 354 357 27 27 46 176 190 161 163 180 183 196 203 204 216 191 219 235 244 262 269
292 281 268 271 284 301 328 346 352 342 335 334 335 333 331 331 320 334 334 345 3 359 347 356 8 25 358 358 45 43 124 150 167 180 191 200 215 207 149 86 32 24 37 22
283 298 275 283 311 295 300 315 316 319 322 319 316 315 316 322 324 336 347 353 358 3 348 349 6 8 4 354 357 39 54 162 165 192 204 213 210 184 184 158 96 52 59 57